| time (UTC) | temp F | wind direction | speed MPH | gust MPH | rain 1hr in | rain 24hr in | rain mn in | humidity % | barometer mb |
| 20260504140338 | 50 | 340 | 17.0 | 24.0 | 0.00 | 0.00 | 0.00 | 55 | 1008.6 |
| 20260504130328 | 47 | 245 | 9.0 | 11.0 | 0.00 | 0.00 | 0.00 | 57 | 1006.4 |
| 20260504110335 | 45 | 311 | 3.0 | 7.0 | 0.00 | 0.00 | 0.00 | 59 | 1006.1 |
| 20260504100336 | 45 | 326 | 2.0 | 7.0 | 0.00 | 0.00 | 0.00 | 61 | 1006.1 |
| 20260504080335 | 46 | 238 | 6.0 | 8.0 | 0.00 | 0.00 | 0.00 | 59 | 1006.7 |
| 20260504070329 | 44 | 336 | 1.0 | 4.0 | 0.00 | 0.00 | 0.00 | 65 | 1007.3 |
| 20260504050322 | 47 | 234 | 4.0 | 5.0 | 0.00 | 0.00 | 0.00 | 61 | 1008.1 |
| 20260504043329 | 46 | 271 | 2.0 | 4.0 | 0.00 | 0.00 | 0.00 | 61 | 1008.4 |
| 20260504040336 | 45 | 294 | 3.0 | 4.0 | 0.00 | 0.00 | 0.00 | 63 | 1008.6 |
| 20260504033319 | 48 | 294 | 2.0 | 3.0 | 0.00 | 0.00 | 0.00 | 58 | 1008.6 |
| 20260504030345 | 53 | 215 | 3.0 | 3.0 | 0.00 | 0.00 | 0.00 | 49 | 1008.6 |
| 20260504023349 | 56 | 168 | 5.0 | 6.0 | 0.00 | 0.00 | 0.00 | 45 | 1008.6 |
| 20260504020330 | 58 | 262 | 2.0 | 3.0 | 0.00 | 0.00 | 0.00 | 42 | 1008.4 |
| 20260504013333 | 63 | 118 | 2.0 | 3.0 | 0.00 | 0.00 | 0.00 | 37 | 1008.3 |
| 20260504010329 | 65 | 138 | 0.0 | 3.0 | 0.00 | 0.00 | 0.00 | 33 | 1008.7 |
| 20260504003400 | 64 | 100 | 4.0 | 8.0 | 0.00 | 0.00 | 0.00 | 34 | 1008.8 |
| 20260504000339 | 64 | 113 | 4.0 | 7.0 | 0.00 | 0.00 | 0.00 | 36 | 1009.3 |
| 20260503233334 | 64 | 91 | 2.0 | 10.0 | 0.00 | 0.00 | 0.00 | 37 | 1009.3 |
| 20260503230329 | 64 | 26 | 9.0 | 14.0 | 0.00 | 0.00 | 0.00 | 37 | 1009.4 |
| 20260503223335 | 61 | 45 | 12.0 | 15.0 | 0.00 | 0.00 | 0.00 | 43 | 1009.9 |
| 20260503220323 | 59 | 33 | 11.0 | 19.0 | 0.00 | 0.00 | 0.00 | 50 | 1010.4 |
| 20260503213325 | 66 | 347 | 12.0 | 31.0 | 0.00 | 0.00 | 0.00 | 29 | 1009.8 |
| 20260503210323 | 59 | 306 | 6.0 | 14.0 | 0.00 | 0.00 | 0.00 | 41 | 1010.2 |
| 20260503203328 | 61 | 321 | 18.0 | 37.0 | 0.00 | 0.00 | 0.00 | 35 | 1010.5 |
| 20260503200324 | 69 | 215 | 10.0 | 19.0 | 0.00 | 0.00 | 0.00 | 24 | 1010.4 |
| 20260503193329 | 67 | 222 | 7.0 | 19.0 | 0.00 | 0.00 | 0.00 | 27 | 1011.1 |
| 20260503190339 | 67 | 302 | 8.0 | 14.0 | 0.00 | 0.00 | 0.00 | 31 | 1011.5 |
| 20260503183325 | 65 | 238 | 3.0 | 11.0 | 0.00 | 0.00 | 0.00 | 33 | 1012.2 |
| 20260503180336 | 62 | 293 | 5.0 | 11.0 | 0.00 | 0.00 | 0.00 | 36 | 1012.6 |
| 20260503173330 | 61 | 284 | 2.0 | 9.0 | 0.00 | 0.00 | 0.00 | 39 | 1013.3 |
| 20260503170344 | 59 | 177 | 4.0 | 8.0 | 0.00 | 0.00 | 0.00 | 42 | 1013.5 |
| 20260503150343 | 52 | 118 | 4.0 | 9.0 | 0.00 | 0.00 | 0.00 | 52 | 1014.7 |